| time (UTC) | temp C | wind direction | speed KPH | gust KPH | rain 1hr cm | rain 24hr cm | rain mn cm | humidity % | barometer mb |
| 20260504151147 | -39 | 138 | 1.6 | 6.4 | 0.00 | 0.00 | 0.00 | 88 | 1017.9 |
| 20260504140404 | -39 | 277 | 3.2 | 8.0 | 0.00 | 0.00 | 0.00 | 88 | 1018.1 |
| 20260504100328 | -39 | 7 | 0.0 | 0.0 | 0.00 | 0.00 | 0.00 | 88 | 1019.2 |
| 20260504081743 | -39 | 7 | 0.0 | 0.0 | 0.00 | 0.00 | 0.00 | 88 | 1019.1 |
| 20260504080231 | -39 | 7 | 0.0 | 0.0 | 0.00 | 0.00 | 0.00 | 88 | 1019.0 |
| 20260504070150 | -39 | 7 | 0.0 | 0.0 | 0.00 | 0.00 | 0.00 | 88 | 1019.1 |
| 20260504060142 | -39 | 7 | 0.0 | 0.0 | 0.00 | 0.00 | 0.00 | 88 | 1019.1 |
| 20260504050133 | -39 | 7 | 0.0 | 0.0 | 0.00 | 0.00 | 0.00 | 88 | 1019.1 |
| 20260504044630 | -39 | 7 | 0.0 | 0.0 | 0.00 | 0.00 | 0.00 | 88 | 1019.0 |
| 20260504043129 | -39 | 7 | 0.0 | 0.0 | 0.00 | 0.00 | 0.00 | 88 | 1018.7 |
| 20260504041628 | -39 | 7 | 0.0 | 0.0 | 0.00 | 0.00 | 0.00 | 88 | 1018.6 |
| 20260504040129 | -39 | 7 | 0.0 | 0.0 | 0.00 | 0.00 | 0.00 | 88 | 1018.6 |
| 20260504034622 | -39 | 7 | 0.0 | 0.0 | 0.00 | 0.00 | 0.00 | 88 | 1018.5 |
| 20260504033118 | -39 | 7 | 0.0 | 0.0 | 0.00 | 0.00 | 0.00 | 88 | 1018.4 |
| 20260504031615 | -39 | 7 | 0.0 | 0.0 | 0.00 | 0.00 | 0.00 | 88 | 1018.4 |
| 20260504030839 | -39 | 7 | 0.0 | 0.0 | 0.00 | 0.00 | 0.00 | 88 | 1018.3 |
| 20260504024557 | -39 | 7 | 0.0 | 0.0 | 0.00 | 0.00 | 0.00 | 88 | 1018.4 |
| 20260504023054 | -39 | 7 | 0.0 | 0.0 | 0.00 | 0.00 | 0.00 | 88 | 1018.4 |
| 20260504021548 | -39 | 7 | 0.0 | 0.0 | 0.00 | 0.00 | 0.00 | 88 | 1018.4 |
| 20260504020044 | -39 | 7 | 0.0 | 0.0 | 0.00 | 0.00 | 0.00 | 88 | 1018.3 |
| 20260504014545 | -39 | 7 | 0.0 | 3.2 | 0.00 | 0.00 | 0.00 | 88 | 1018.2 |
| 20260504013750 | -39 | 7 | 0.0 | 0.0 | 0.00 | 0.00 | 0.00 | 88 | 1018.1 |
| 20260504011512 | -39 | 7 | 0.0 | 0.0 | 0.00 | 0.00 | 0.00 | 88 | 1017.8 |
| 20260504010005 | -39 | 7 | 0.0 | 0.0 | 0.00 | 0.00 | 0.00 | 88 | 1017.7 |
| 20260504004502 | -39 | 7 | 0.0 | 0.0 | 0.00 | 0.00 | 0.00 | 88 | 1017.5 |
| 20260504002954 | -39 | 7 | 0.0 | 0.0 | 0.00 | 0.00 | 0.00 | 88 | 1017.2 |
| 20260504001447 | -39 | 7 | 0.0 | 0.0 | 0.00 | 0.00 | 0.00 | 88 | 1017.1 |
| 20260503235941 | -39 | 7 | 0.0 | 6.4 | 0.00 | 0.00 | 0.00 | 88 | 1017.0 |
| 20260503234435 | -39 | 16 | 0.0 | 8.0 | 0.00 | 0.00 | 0.00 | 88 | 1016.9 |
| 20260503233656 | -39 | 12 | 0.0 | 4.8 | 0.00 | 0.00 | 0.00 | 88 | 1016.8 |
| 20260503231415 | -39 | 24 | 4.8 | 9.7 | 0.00 | 0.00 | 0.00 | 88 | 1016.7 |
| 20260503225912 | -39 | 20 | 6.4 | 12.9 | 0.00 | 0.00 | 0.00 | 88 | 1016.6 |
| 20260503224410 | -39 | 10 | 6.4 | 9.7 | 0.00 | 0.00 | 0.00 | 88 | 1016.6 |
| 20260503222910 | -39 | 25 | 6.4 | 14.5 | 0.00 | 0.00 | 0.00 | 88 | 1016.7 |
| 20260503221410 | -39 | 29 | 6.4 | 17.7 | 0.00 | 0.00 | 0.00 | 88 | 1016.7 |
| 20260503215910 | -39 | 13 | 6.4 | 12.9 | 0.00 | 0.00 | 0.00 | 88 | 1016.7 |
| 20260503215143 | -39 | 23 | 6.4 | 12.9 | 0.00 | 0.00 | 0.00 | 88 | 1016.6 |
| 20260503212911 | -39 | 4 | 8.0 | 17.7 | 0.00 | 0.00 | 0.00 | 88 | 1016.5 |
| 20260503211411 | -39 | 9 | 8.0 | 16.1 | 0.00 | 0.00 | 0.00 | 88 | 1016.6 |
| 20260503205910 | -39 | 22 | 6.4 | 12.9 | 0.00 | 0.00 | 0.00 | 88 | 1016.6 |
| 20260503205142 | -39 | 355 | 8.0 | 22.5 | 0.00 | 0.00 | 0.00 | 88 | 1016.7 |
| 20260503202911 | -39 | 17 | 8.0 | 24.1 | 0.00 | 0.00 | 0.00 | 88 | 1016.8 |
| 20260503201411 | -39 | 36 | 4.8 | 19.3 | 0.00 | 0.00 | 0.00 | 88 | 1017.1 |
| 20260503195908 | -39 | 31 | 8.0 | 17.7 | 0.00 | 0.00 | 0.00 | 88 | 1017.1 |
| 20260503194408 | -39 | 50 | 4.8 | 17.7 | 0.00 | 0.00 | 0.00 | 88 | 1017.1 |
| 20260503192907 | -39 | 354 | 9.7 | 19.3 | 0.00 | 0.00 | 0.00 | 88 | 1017.3 |
| 20260503191409 | -39 | 15 | 9.7 | 22.5 | 0.00 | 0.00 | 0.00 | 88 | 1017.4 |
| 20260503185908 | -39 | 10 | 9.7 | 20.9 | 0.00 | 0.00 | 0.00 | 88 | 1017.5 |
| 20260503184407 | -39 | 22 | 8.0 | 20.9 | 0.00 | 0.00 | 0.00 | 88 | 1017.7 |
| 20260503182908 | -39 | 50 | 9.7 | 17.7 | 0.00 | 0.00 | 0.00 | 88 | 1017.7 |
| 20260503181405 | -39 | 31 | 11.3 | 22.5 | 0.00 | 0.00 | 0.00 | 88 | 1018.0 |
| 20260503175906 | -39 | 14 | 9.7 | 22.5 | 0.00 | 0.00 | 0.00 | 88 | 1018.0 |
| 20260503174406 | -39 | 11 | 8.0 | 20.9 | 0.00 | 0.00 | 0.00 | 88 | 1017.8 |
| 20260503172903 | -39 | 24 | 9.7 | 19.3 | 0.00 | 0.00 | 0.00 | 88 | 1018.2 |
| 20260503171404 | -39 | 78 | 8.0 | 16.1 | 0.00 | 0.00 | 0.00 | 88 | 1018.2 |
| 20260503170633 | -39 | 3 | 8.0 | 19.3 | 0.00 | 0.00 | 0.00 | 88 | 1018.2 |